Lexington Weather

Lexington, Massachusetts, USA

40°F
11/27/2020 2:46am 
  • Lexington Conditions: Fog, Overcast
  • Temperature: 39.6°F / 4.2°CColder 0.9°F than last hour.
  • Dew Point: 38.8°FDecreased 0.9°Fsince last hour.
  • Relative Humidity: 97
  • Wind: Calm, 10-min avg: Calm, gust: None
  • Barometer: 29.97 in Steady
  • Visibility: ¼ mile
  • Rain Today: 0.00 in
  •   
Southeast Middlesex County - Special Weather Statement
 - SEE ALL NEARBY ALERTS -

Regional Weather Roundup
for Boston / Norton, MA

        
000
ASUS41 KBOX 242005
RWRBOX

REGIONAL WEATHER ROUNDUP
NATIONAL WEATHER SERVICE BOSTON/NORTON MA
300 PM EST TUE NOV 24 2020

NOTE:  "FAIR" INDICATES FEW OR NO CLOUDS BELOW 12,000 FEET WITH NO 
SIGNIFICANT WEATHER AND/OR OBSTRUCTIONS TO VISIBILITY.

MAZALL-242100-
EASTERN MASSACHUSETTS
  
CITY           SKY/WX    TMP DP  RH WIND       PRES   REMARKS
BOSTON         MOSUNNY   42  16  34 NW17G24   30.29R                  
BEVERLY        SUNNY     42  17  36 NW12      30.27R                  
LAWRENCE       SUNNY     41  16  36 NW9       30.30R                  
BEDFORD        SUNNY     43  17  35 NW10      30.28R                  
BLUE HILL        N/A     41  18  39 NW9G18    30.25R                  
NORWOOD        SUNNY     46  20  35 NW8       30.28R                  
MARSHFIELD     SUNNY     45  19  36 NW9G16    30.27S                  
PLYMOUTH       SUNNY     44  20  38 W10       30.27R                  
TAUNTON        SUNNY     47  20  34 W8G16     30.27R                  
NEW BEDFORD    SUNNY     46  23  40 NW9       30.27R                  
$$

MAZALL-242100-
CAPE COD AND THE ISLANDS
  
CITY           SKY/WX    TMP DP  RH WIND       PRES   REMARKS
FALMOUTH       SUNNY     45  19  36 NW12G20   30.26R                  
HYANNIS        SUNNY     45  20  36 NW12G22   30.25R                  
CHATHAM        SUNNY     44  24  45 NW8       30.27R                  
PROVINCETOWN   SUNNY     43  23  45 NW17G28   30.28R                  
NANTUCKET      SUNNY     46  25  43 NW10      30.27R                  
MARTHAS VNYRD  SUNNY     45  23  42 NW13      30.26R                  
$$
 
MAZALL-242100-
CENTRAL AND WESTERN MASSACHUSETTS
  
CITY           SKY/WX    TMP DP  RH WIND       PRES   REMARKS
WORCESTER      SUNNY     39  16  39 W8        30.26R                  
FITCHBURG      SUNNY     42  15  33 NW15G24   30.29R                  
ORANGE         SUNNY     42  16  34 N9        30.29R                  
SPRINGFIELD    MOSUNNY   44  17  34 NW13      30.29R                  
WESTFIELD      SUNNY     44  19  36 NW9       30.30R                  
NORTH ADAMS    SUNNY     40  19  43 W12       30.30R                  
PITTSFIELD     SUNNY     38  18  44 NW16G23   30.27R WCI  29          
$$
 
RIZALL-242100-
RHODE ISLAND
  
CITY           SKY/WX    TMP DP  RH WIND       PRES   REMARKS
PROVIDENCE     MOSUNNY   45  20  36 NW16      30.29R                  
NEWPORT        SUNNY     44  23  43 NW15      30.27S                  
BLOCK ISLAND   SUNNY     44  23  43 NW10      30.29R                  
SMITHFIELD     SUNNY     42  20  41 NW9       30.28R                  
WESTERLY       SUNNY     46  20  35 VRB6      30.29R                  
$$
 
CTZALL-242100-
CONNECTICUT
  
CITY           SKY/WX    TMP DP  RH WIND       PRES   REMARKS
BRADLEY INTL   MOSUNNY   45  19  35 NW12      30.30R                  
HARTFORD       SUNNY     45  21  38 NW8       30.31R                  
BRIDGEPORT     SUNNY     49  23  36 NW12      30.31R                  
DANBURY        SUNNY     46  22  38 NW9       30.30S                  
GROTON         SUNNY     47  22  37 NW7G21    30.29R                  
NEW HAVEN      SUNNY     48  24  39 NW9       30.31R                  
CHESTER        FAIR      45  19  36 NW8G16    30.29R                  
MERIDEN        SUNNY     45  19  35 NW10      30.31R                  
WILLIMANTIC    SUNNY     44  19  36 NW10      30.30S                  
OXFORD         SUNNY     43  23  45 NW9       30.29S                  
$$

MEZ002-015-021-024-NHZ003-005-008-011-012-014-VTZ005-008-242100-
NORTHERN NEW ENGLAND
  
CITY           SKY/WX    TMP DP  RH WIND       PRES   REMARKS
PORTLAND ME    CLEAR     36  12  37 NW16G22   30.27R WCI  26          
BANGOR ME      PTCLDY    31  10  41 NW21      30.22R WCI  18          
CONCORD NH     SUNNY     37  12  35 N15G21    30.30R WCI  28          
MANCHESTER NH  MOSUNNY   41  13  31 NW8       30.27R                  
NASHUA NH      SUNNY     41  15  35 NW14      30.30R                  
PORTSMOUTH NH  MOSUNNY   39  10  30 NW14G22   30.27R WCI  31          
JAFFREY NH     SUNNY     39  15  37 W5        30.25S                  
KEENE NH       SUNNY     40  17  39 NW7       30.29R                  
BURLINGTON VT  MOSUNNY   29  12  49 N13       30.39S WCI  19          
MT. WASHINGTON MOCLDY     1  -8  66 NW67G74     N/A  WCI -32          
$$

NYZ052-076-242100-
EASTERN NEW YORK
  
CITY           SKY/WX    TMP DP  RH WIND       PRES   REMARKS
ALBANY         MOSUNNY   38  20  48 W14       30.34R WCI  30          
NEW YORK CITY  PTSUNNY   50  25  37 NW12      30.32R                  
$$
 
ANZALL-242100-
MARINE OBSERVATIONS
  
STATION/POSITION TIME  TEMP    WIND        PRES    VSBY  WAVE
                       AIR SEA DIR/SP/G                  HT/PER
                 (UTC) (F)     (DEG/KT/KT) (MB)    (MI)  (FT/S)
BOSTON BUOY      1940   43 51  310/ 17/ 23 1025.5R
BUZZARDS BAY     1900          320/ 17/ 19 1025.8R
NANTUCKET SOUND  1940      51  320/ 14/ 17   N/A
MASS BAY-STELLWA NOT AVBL
ISLE OF SHOALS   1900   38     300/ 19/ 21 1024.0R
S OF BLOCK IS    1926      57                N/A           4/ 6
$$

......................KEY.........................
  SKY/WX - SKY CONDITION/PRESENT WEATHER
  TMP    - TEMPERATURE IN FAHRENHEIT
  DWPT   - DEWPOINT IN FAHRENHEIT
  RH     - RELATIVE HUMIDITY IN PERCENT
  WIND   - DIRECTION AND SPEED IN MPH
  PRES   - MEAN SEA LEVEL PRESSURE IN INCHES OF HG
  WCI    - WIND CHILL INDEX
  VSB    - VISIBILITY IN MILES
  HX     - HEAT INDEX
  TC     - TEMPERATURE IN CELSIUS
  VRB    - VARIABLE WIND DIRECTION
  N/A    - NOT AVAILABLE
  
      

Other recent Regional Weather Roundups

Thu Nov 26, 11:04pm

Thu Nov 26, 10:04pm

Thu Nov 26, 9:04pm

Thu Nov 26, 8:04pm

Thu Nov 26, 7:04pm

Thu Nov 26, 6:04pm

Thu Nov 26, 5:04pm

Thu Nov 26, 4:04pm

Thu Nov 26, 2:04pm

Thu Nov 26, 1:04pm

Thu Nov 26, 12:04pm

Thu Nov 26, 11:04am

Thu Nov 26, 10:04am

Thu Nov 26, 9:04am

Thu Nov 26, 8:04am

Thu Nov 26, 7:04am

Thu Nov 26, 6:04am

Thu Nov 26, 5:04am

Thu Nov 26, 4:04am

Thu Nov 26, 3:04am

Thu Nov 26, 2:04am

Thu Nov 26, 1:04am

Thu Nov 26, 12:04am

Wed Nov 25, 11:04pm

Wed Nov 25, 10:04pm

Wed Nov 25, 9:04pm

Wed Nov 25, 8:04pm

Wed Nov 25, 7:04pm

Wed Nov 25, 6:04pm

Wed Nov 25, 5:04pm

Wed Nov 25, 4:04pm

Wed Nov 25, 3:05pm

Wed Nov 25, 2:04pm

Wed Nov 25, 1:04pm

Wed Nov 25, 12:05pm

Wed Nov 25, 11:04am

Wed Nov 25, 10:04am

Wed Nov 25, 9:04am

Wed Nov 25, 8:04am

Wed Nov 25, 7:04am

Wed Nov 25, 6:04am

Wed Nov 25, 5:04am

Wed Nov 25, 4:04am

Wed Nov 25, 3:04am

Wed Nov 25, 2:04am

Wed Nov 25, 1:04am

Wed Nov 25, 12:04am

Tue Nov 24, 11:04pm

Tue Nov 24, 10:04pm

Tue Nov 24, 9:04pm

Tue Nov 24, 8:04pm

Tue Nov 24, 7:04pm

Tue Nov 24, 6:04pm

Tue Nov 24, 5:04pm

Tue Nov 24, 4:05pm

Tue Nov 24, 2:05pm

Tue Nov 24, 1:05pm

Tue Nov 24, 12:04pm

Tue Nov 24, 11:04am

Tue Nov 24, 10:04am

Tue Nov 24, 9:04am

Tue Nov 24, 8:04am

Tue Nov 24, 7:04am

Tue Nov 24, 6:04am

Tue Nov 24, 5:04am

Tue Nov 24, 4:05am

Tue Nov 24, 3:04am

Tue Nov 24, 2:04am

Tue Nov 24, 1:04am

Tue Nov 24, 12:05am

Mon Nov 23, 11:04pm

Mon Nov 23, 10:04pm

Mon Nov 23, 9:04pm

Mon Nov 23, 8:04pm

Mon Nov 23, 7:04pm

Mon Nov 23, 6:04pm

Mon Nov 23, 5:04pm

Mon Nov 23, 4:04pm

Mon Nov 23, 3:04pm

Mon Nov 23, 2:04pm

Mon Nov 23, 1:04pm

Mon Nov 23, 12:04pm

Mon Nov 23, 11:04am

Mon Nov 23, 10:04am

Mon Nov 23, 9:04am

Mon Nov 23, 8:05am

Mon Nov 23, 7:04am

Mon Nov 23, 6:04am

Mon Nov 23, 5:04am

Mon Nov 23, 4:04am

Mon Nov 23, 3:04am

Mon Nov 23, 2:04am

Mon Nov 23, 1:04am

Mon Nov 23, 12:05am

Sun Nov 22, 11:04pm

Sun Nov 22, 10:04pm

Sun Nov 22, 9:04pm

Sun Nov 22, 8:05pm

Sun Nov 22, 7:04pm

Sun Nov 22, 6:04pm

Sun Nov 22, 5:04pm

Sun Nov 22, 4:04pm

Sun Nov 22, 3:04pm

Sun Nov 22, 2:04pm

Sun Nov 22, 1:05pm

Sun Nov 22, 12:04pm

Sun Nov 22, 11:04am

Sun Nov 22, 10:05am

Sun Nov 22, 9:04am

Sun Nov 22, 8:04am

Sun Nov 22, 7:04am

Sun Nov 22, 6:04am

Sun Nov 22, 5:04am

Sun Nov 22, 4:04am

Sun Nov 22, 3:04am

Sun Nov 22, 2:04am

Sun Nov 22, 1:04am

Sun Nov 22, 12:04am

Sat Nov 21, 11:04pm

Sat Nov 21, 10:04pm

Sat Nov 21, 9:04pm

Sat Nov 21, 8:05pm

Sat Nov 21, 7:04pm

Sat Nov 21, 6:04pm

Sat Nov 21, 5:04pm

Sat Nov 21, 4:05pm

Sat Nov 21, 3:04pm

Sat Nov 21, 2:04pm

Sat Nov 21, 1:05pm

Sat Nov 21, 12:04pm

Sat Nov 21, 11:04am

Sat Nov 21, 10:04am

Sat Nov 21, 9:04am

Sat Nov 21, 8:04am

Sat Nov 21, 7:04am

Sat Nov 21, 6:04am

Sat Nov 21, 5:04am

Sat Nov 21, 4:04am

Sat Nov 21, 3:04am

Sat Nov 21, 2:04am

Sat Nov 21, 1:04am

Sat Nov 21, 12:04am

Fri Nov 20, 11:04pm

Fri Nov 20, 10:04pm

Fri Nov 20, 9:04pm

Fri Nov 20, 8:04pm

Fri Nov 20, 7:04pm

Fri Nov 20, 6:04pm

Fri Nov 20, 5:04pm

Fri Nov 20, 4:05pm

Fri Nov 20, 3:05pm

Fri Nov 20, 2:04pm

Fri Nov 20, 1:04pm

Fri Nov 20, 12:04pm

Fri Nov 20, 11:04am

Fri Nov 20, 10:04am

Fri Nov 20, 9:04am

Fri Nov 20, 8:04am

Fri Nov 20, 7:04am

Fri Nov 20, 6:04am

Fri Nov 20, 5:04am

Fri Nov 20, 4:04am

Fri Nov 20, 3:04am

Meta data:

ID: e29721b5-249f-4032-a8ab-2ca565285854
Link: https://api.weather.gov/products/e29721b5-249f-4032-a8ab-2ca565285854